Location: Iesi
(43.5167°N, 13.2333°E)
Time: 02:31:01
(UTC+00:00)

Meteor 2-4 Rocket - Pass Details

Date: 08 August 2020
Orbit: 798 x 909 km, 81.2° (Epoch: 19 September)

Event Time Altitude Azimuth Distance (km) Brightness Sun altitude
Rises 21:10:02 0° 352° (N) 3,469 8.0 -24.4°
Reaches altitude 10° 21:12:33 10° 355° (N) 2,510 7.0 -24.6°
Maximum altitude 21:18:12 65° 77° (ENE) 927 3.7 -25.2°
Enters shadow 21:18:40 62° 106° (ESE) 946 3.7 -25.2°
